Year,Month,Day,Hour,Minute,Value (Times are PST for temperature in C)
2017,07,07,00,00,17.80
2017,07,07,00,01,17.80
2017,07,07,00,02,17.70
2017,07,07,00,03,17.70
2017,07,07,00,04,17.60
2017,07,07,00,05,17.50
2017,07,07,00,06,17.40
2017,07,07,00,07,17.30
2017,07,07,00,08,17.20
2017,07,07,00,09,17.20
2017,07,07,00,10,17.10
2017,07,07,00,11,17.00
2017,07,07,00,12,17.00
2017,07,07,00,13,16.90
2017,07,07,00,14,16.80
2017,07,07,00,15,16.80
2017,07,07,00,16,16.80
2017,07,07,00,17,16.80
2017,07,07,00,18,16.80
2017,07,07,00,19,16.90
2017,07,07,00,20,16.90
2017,07,07,00,21,16.90
2017,07,07,00,22,16.90
2017,07,07,00,23,16.90
2017,07,07,00,24,16.90
2017,07,07,00,25,17.00
2017,07,07,00,26,16.90
2017,07,07,00,27,16.90
2017,07,07,00,28,16.90
2017,07,07,00,29,16.90
2017,07,07,00,30,16.80
2017,07,07,00,31,16.70
2017,07,07,00,32,16.70
2017,07,07,00,33,16.60
2017,07,07,00,34,16.60
2017,07,07,00,35,16.60
2017,07,07,00,36,16.50
2017,07,07,00,37,16.50
2017,07,07,00,38,16.40
2017,07,07,00,39,16.40
2017,07,07,00,40,16.40
2017,07,07,00,41,16.40
2017,07,07,00,42,16.40
2017,07,07,00,43,16.40
2017,07,07,00,44,16.50
2017,07,07,00,45,16.50
2017,07,07,00,46,16.60
2017,07,07,00,47,16.60
2017,07,07,00,48,16.60
2017,07,07,00,49,16.60
2017,07,07,00,50,16.60
2017,07,07,00,51,16.60
2017,07,07,00,52,16.60
2017,07,07,00,53,16.50
2017,07,07,00,54,16.40
2017,07,07,00,55,16.50
2017,07,07,00,56,16.60
2017,07,07,00,57,16.60
2017,07,07,00,58,16.70
2017,07,07,00,59,16.70
2017,07,07,01,00,16.70
2017,07,07,01,01,16.70
2017,07,07,01,02,16.70
2017,07,07,01,03,16.70
2017,07,07,01,04,16.70
2017,07,07,01,05,16.70
2017,07,07,01,06,16.70
2017,07,07,01,07,16.60
2017,07,07,01,08,16.60
2017,07,07,01,09,16.50
2017,07,07,01,10,16.40
2017,07,07,01,11,16.40
2017,07,07,01,12,16.30
2017,07,07,01,13,16.30
2017,07,07,01,14,16.20
2017,07,07,01,15,16.20
2017,07,07,01,16,16.20
2017,07,07,01,17,16.20
2017,07,07,01,18,16.20
2017,07,07,01,19,16.20
2017,07,07,01,20,16.20
2017,07,07,01,21,16.20
2017,07,07,01,22,16.20
2017,07,07,01,23,16.10
2017,07,07,01,24,16.10
2017,07,07,01,25,16.10
2017,07,07,01,26,16.10
2017,07,07,01,27,16.10
2017,07,07,01,28,16.10
2017,07,07,01,29,16.10
2017,07,07,01,30,16.10
2017,07,07,01,31,16.20
2017,07,07,01,32,16.20
2017,07,07,01,33,16.30
2017,07,07,01,34,16.50
2017,07,07,01,35,16.60
2017,07,07,01,36,16.80
2017,07,07,01,37,16.80
2017,07,07,01,38,16.90
2017,07,07,01,39,17.00
2017,07,07,01,40,17.00
2017,07,07,01,41,17.10
2017,07,07,01,42,17.10
2017,07,07,01,43,17.20
2017,07,07,01,44,17.20
2017,07,07,01,45,17.30
2017,07,07,01,46,17.30
2017,07,07,01,47,17.30
2017,07,07,01,48,17.30
2017,07,07,01,49,17.30
2017,07,07,01,50,17.30
2017,07,07,01,51,17.20
2017,07,07,01,52,17.10
2017,07,07,01,53,17.00
2017,07,07,01,54,16.90
2017,07,07,01,55,16.90
2017,07,07,01,56,16.80
2017,07,07,01,57,16.70
2017,07,07,01,58,16.60
2017,07,07,01,59,16.60
2017,07,07,02,00,16.50
2017,07,07,02,01,16.40
2017,07,07,02,02,16.30
2017,07,07,02,03,16.30
2017,07,07,02,04,16.20
2017,07,07,02,05,16.10
2017,07,07,02,06,16.00
2017,07,07,02,07,16.00
2017,07,07,02,08,15.90
2017,07,07,02,09,15.90
2017,07,07,02,10,15.90
2017,07,07,02,11,15.90
2017,07,07,02,12,15.80
2017,07,07,02,13,15.80
2017,07,07,02,14,15.80
2017,07,07,02,15,15.80
2017,07,07,02,16,15.80
2017,07,07,02,17,15.80
2017,07,07,02,18,15.70
2017,07,07,02,19,15.70
2017,07,07,02,20,15.70
2017,07,07,02,21,15.70
2017,07,07,02,22,15.70
2017,07,07,02,23,15.70
2017,07,07,02,24,15.60
2017,07,07,02,25,15.60
2017,07,07,02,26,15.60
2017,07,07,02,27,15.60
2017,07,07,02,28,15.60
2017,07,07,02,29,15.60
2017,07,07,02,30,15.60
2017,07,07,02,31,15.60
2017,07,07,02,32,15.60
2017,07,07,02,33,15.60
2017,07,07,02,34,15.60
2017,07,07,02,35,15.60
2017,07,07,02,36,15.50
2017,07,07,02,37,15.40
2017,07,07,02,38,15.40
2017,07,07,02,39,15.30
2017,07,07,02,40,15.30
2017,07,07,02,41,15.30
2017,07,07,02,42,15.30
2017,07,07,02,43,15.30
2017,07,07,02,44,15.20
2017,07,07,02,45,15.20
2017,07,07,02,46,15.20
2017,07,07,02,47,15.20
2017,07,07,02,48,15.20
2017,07,07,02,49,15.20
2017,07,07,02,50,15.10
2017,07,07,02,51,15.10
2017,07,07,02,52,15.10
2017,07,07,02,53,15.00
2017,07,07,02,54,15.00
2017,07,07,02,55,15.00
2017,07,07,02,56,15.00
2017,07,07,02,57,15.00
2017,07,07,02,58,15.00
2017,07,07,02,59,15.00
2017,07,07,03,00,15.00
2017,07,07,03,01,15.00
2017,07,07,03,02,15.00
2017,07,07,03,03,15.00
2017,07,07,03,04,15.00
2017,07,07,03,05,15.00
2017,07,07,03,06,15.00
2017,07,07,03,07,15.00
2017,07,07,03,08,15.00
2017,07,07,03,09,15.00
2017,07,07,03,10,15.00
2017,07,07,03,11,15.00
2017,07,07,03,12,15.00
2017,07,07,03,13,15.00
2017,07,07,03,14,15.00
2017,07,07,03,15,15.00
2017,07,07,03,16,15.00
2017,07,07,03,17,15.00
2017,07,07,03,18,15.00
2017,07,07,03,19,15.00
2017,07,07,03,20,14.90
2017,07,07,03,21,14.80
2017,07,07,03,22,14.80
2017,07,07,03,23,14.80
2017,07,07,03,24,14.80
2017,07,07,03,25,14.80
2017,07,07,03,26,14.80
2017,07,07,03,27,14.80
2017,07,07,03,28,14.90
2017,07,07,03,29,14.90
2017,07,07,03,30,15.00
2017,07,07,03,31,15.00
2017,07,07,03,32,15.00
2017,07,07,03,33,15.00
2017,07,07,03,34,15.00
2017,07,07,03,35,15.00
2017,07,07,03,36,15.00
2017,07,07,03,37,15.00
2017,07,07,03,38,15.00
2017,07,07,03,39,15.00
2017,07,07,03,40,15.00
2017,07,07,03,41,15.00
2017,07,07,03,42,15.00
2017,07,07,03,43,15.00
2017,07,07,03,44,15.00
2017,07,07,03,45,15.00
2017,07,07,03,46,15.00
2017,07,07,03,47,15.00
2017,07,07,03,48,15.10
2017,07,07,03,49,15.30
2017,07,07,03,50,15.30
2017,07,07,03,51,15.40
2017,07,07,03,52,15.40
2017,07,07,03,53,15.40
2017,07,07,03,54,15.40
2017,07,07,03,55,15.40
2017,07,07,03,56,15.40
2017,07,07,03,57,15.40
2017,07,07,03,58,15.40
2017,07,07,03,59,15.40
2017,07,07,04,00,15.30
2017,07,07,04,01,15.30
2017,07,07,04,02,15.20
2017,07,07,04,03,15.10
2017,07,07,04,04,15.00
2017,07,07,04,05,15.00
2017,07,07,04,06,15.00
2017,07,07,04,07,15.00
2017,07,07,04,08,15.00
2017,07,07,04,09,15.00
2017,07,07,04,10,14.90
2017,07,07,04,11,14.80
2017,07,07,04,12,14.70
2017,07,07,04,13,14.70
2017,07,07,04,14,14.70
2017,07,07,04,15,14.60
2017,07,07,04,16,14.60
2017,07,07,04,17,14.50
2017,07,07,04,18,14.50
2017,07,07,04,19,14.50
2017,07,07,04,20,14.50
2017,07,07,04,21,14.40
2017,07,07,04,22,14.40
2017,07,07,04,23,14.40
2017,07,07,04,24,14.40
2017,07,07,04,25,14.50
2017,07,07,04,26,14.50
2017,07,07,04,27,14.50
2017,07,07,04,28,14.60
2017,07,07,04,29,14.60
2017,07,07,04,30,14.70
2017,07,07,04,31,14.80
2017,07,07,04,32,15.00
2017,07,07,04,33,15.00
2017,07,07,04,34,15.00
2017,07,07,04,35,15.00
2017,07,07,04,36,15.20
2017,07,07,04,37,15.40
2017,07,07,04,38,15.40
2017,07,07,04,39,15.50
2017,07,07,04,40,15.60
2017,07,07,04,41,15.60
2017,07,07,04,42,15.70
2017,07,07,04,43,15.70
2017,07,07,04,44,15.70
2017,07,07,04,45,15.70
2017,07,07,04,46,15.70
2017,07,07,04,47,15.60
2017,07,07,04,48,15.60
2017,07,07,04,49,15.60
2017,07,07,04,50,15.50
2017,07,07,04,51,15.50
2017,07,07,04,52,15.40
2017,07,07,04,53,15.40
2017,07,07,04,54,15.30
2017,07,07,04,55,15.20
2017,07,07,04,56,15.10
2017,07,07,04,57,15.00
2017,07,07,04,58,15.00
2017,07,07,04,59,15.00
2017,07,07,05,00,15.00
2017,07,07,05,01,14.80
2017,07,07,05,02,14.70
2017,07,07,05,03,14.70
2017,07,07,05,04,14.60
2017,07,07,05,05,14.50
2017,07,07,05,06,14.40
2017,07,07,05,07,14.40
2017,07,07,05,08,14.30
2017,07,07,05,09,14.30
2017,07,07,05,10,14.20
2017,07,07,05,11,14.10
2017,07,07,05,12,14.10
2017,07,07,05,13,14.10
2017,07,07,05,14,14.00
2017,07,07,05,15,14.00
2017,07,07,05,16,14.10
2017,07,07,05,17,14.10
2017,07,07,05,18,14.20
2017,07,07,05,19,14.20
2017,07,07,05,20,14.30
2017,07,07,05,21,14.30
2017,07,07,05,22,14.30
2017,07,07,05,23,14.30
2017,07,07,05,24,14.30
2017,07,07,05,25,14.30
2017,07,07,05,26,14.30
2017,07,07,05,27,14.30
2017,07,07,05,28,14.30
2017,07,07,05,29,14.20
2017,07,07,05,30,14.20
2017,07,07,05,31,14.20
2017,07,07,05,32,14.10
2017,07,07,05,33,14.10
2017,07,07,05,34,14.00
2017,07,07,05,35,14.00
2017,07,07,05,36,14.00
2017,07,07,05,37,13.90
2017,07,07,05,38,13.90
2017,07,07,05,39,13.90
2017,07,07,05,40,13.90
2017,07,07,05,41,13.90
2017,07,07,05,42,13.80
2017,07,07,05,43,13.80
2017,07,07,05,44,13.80
2017,07,07,05,45,13.80
2017,07,07,05,46,13.80
2017,07,07,05,47,13.80
2017,07,07,05,48,13.80
2017,07,07,05,49,13.80
2017,07,07,05,50,13.80
2017,07,07,05,51,13.80
2017,07,07,05,52,13.90
2017,07,07,05,53,14.00
2017,07,07,05,54,14.00
2017,07,07,05,55,14.20
2017,07,07,05,56,14.30
2017,07,07,05,57,14.50
2017,07,07,05,58,14.50
2017,07,07,05,59,14.60
2017,07,07,06,00,14.70
2017,07,07,06,01,14.70
2017,07,07,06,02,14.80
2017,07,07,06,03,14.90
2017,07,07,06,04,15.00
2017,07,07,06,05,15.00
2017,07,07,06,06,15.00
2017,07,07,06,07,15.00
2017,07,07,06,08,15.00
2017,07,07,06,09,15.00
2017,07,07,06,10,15.10
2017,07,07,06,11,15.20
2017,07,07,06,12,15.20
2017,07,07,06,13,15.30
2017,07,07,06,14,15.30
2017,07,07,06,15,15.40
2017,07,07,06,16,15.40
2017,07,07,06,17,15.40
2017,07,07,06,18,15.50
2017,07,07,06,19,15.60
2017,07,07,06,20,15.60
2017,07,07,06,21,15.70
2017,07,07,06,22,15.70
2017,07,07,06,23,15.70
2017,07,07,06,24,15.70
2017,07,07,06,25,15.80
2017,07,07,06,26,15.90
2017,07,07,06,27,15.90
2017,07,07,06,28,16.00
2017,07,07,06,29,16.00
2017,07,07,06,30,16.00
2017,07,07,06,31,16.00
2017,07,07,06,32,16.00
2017,07,07,06,33,16.00
2017,07,07,06,34,16.00
2017,07,07,06,35,16.00
2017,07,07,06,36,16.00
2017,07,07,06,37,16.10
2017,07,07,06,38,16.00
2017,07,07,06,39,16.10
2017,07,07,06,40,16.10
2017,07,07,06,41,16.10
2017,07,07,06,42,16.10
2017,07,07,06,43,16.10
2017,07,07,06,44,16.10
2017,07,07,06,45,16.20
2017,07,07,06,46,16.20
2017,07,07,06,47,16.20
2017,07,07,06,48,16.30
2017,07,07,06,49,16.30
2017,07,07,06,50,16.40
2017,07,07,06,51,16.40
2017,07,07,06,52,16.50
2017,07,07,06,53,16.60
2017,07,07,06,54,16.70
2017,07,07,06,55,16.70
2017,07,07,06,56,16.80
2017,07,07,06,57,16.90
2017,07,07,06,58,17.00
2017,07,07,06,59,17.00
2017,07,07,07,00,17.10
2017,07,07,07,01,17.10
2017,07,07,07,02,17.20
2017,07,07,07,03,17.20
2017,07,07,07,04,17.30
2017,07,07,07,05,17.30
2017,07,07,07,06,17.40
2017,07,07,07,07,17.40
2017,07,07,07,08,17.40
2017,07,07,07,09,17.50
2017,07,07,07,10,17.60
2017,07,07,07,11,17.70
2017,07,07,07,12,17.70
2017,07,07,07,13,17.70
2017,07,07,07,14,17.80
2017,07,07,07,15,17.80
2017,07,07,07,16,17.90
2017,07,07,07,17,17.90
2017,07,07,07,18,17.90
2017,07,07,07,19,18.00
2017,07,07,07,20,18.10
2017,07,07,07,21,18.10
2017,07,07,07,22,18.20
2017,07,07,07,23,18.20
2017,07,07,07,24,18.20
2017,07,07,07,25,18.30
2017,07,07,07,26,18.30
2017,07,07,07,27,18.40
2017,07,07,07,28,18.40
2017,07,07,07,29,18.50
2017,07,07,07,30,18.60
2017,07,07,07,31,18.60
2017,07,07,07,32,18.70
2017,07,07,07,33,18.70
2017,07,07,07,34,18.80
2017,07,07,07,35,18.80
2017,07,07,07,36,18.90
2017,07,07,07,37,18.90
2017,07,07,07,38,19.00
2017,07,07,07,39,19.00
2017,07,07,07,40,19.10
2017,07,07,07,41,19.10
2017,07,07,07,42,19.10
2017,07,07,07,43,19.20
2017,07,07,07,44,19.20
2017,07,07,07,45,19.20
2017,07,07,07,46,19.30
2017,07,07,07,47,19.30
2017,07,07,07,48,19.30
2017,07,07,07,49,19.40
2017,07,07,07,50,19.40
2017,07,07,07,51,19.40
2017,07,07,07,52,19.50
2017,07,07,07,53,19.50
2017,07,07,07,54,19.50
2017,07,07,07,55,19.60
2017,07,07,07,56,19.70
2017,07,07,07,57,19.70
2017,07,07,07,58,19.70
2017,07,07,07,59,19.70
2017,07,07,08,00,19.80
2017,07,07,08,01,19.80
2017,07,07,08,02,19.80
2017,07,07,08,03,19.80
2017,07,07,08,04,19.80
2017,07,07,08,05,19.80
2017,07,07,08,06,19.90
2017,07,07,08,07,19.90
2017,07,07,08,08,20.00
2017,07,07,08,09,20.00
2017,07,07,08,10,20.10
2017,07,07,08,11,20.10
2017,07,07,08,12,20.10
2017,07,07,08,13,20.00
2017,07,07,08,14,19.90
2017,07,07,08,15,19.90
2017,07,07,08,16,19.80
2017,07,07,08,17,19.80
2017,07,07,08,18,19.80
2017,07,07,08,19,19.80
2017,07,07,08,20,19.90
2017,07,07,08,21,19.90
2017,07,07,08,22,19.90
2017,07,07,08,23,20.00
2017,07,07,08,24,20.00
2017,07,07,08,25,20.10
2017,07,07,08,26,20.10
2017,07,07,08,27,20.10
2017,07,07,08,28,20.10
2017,07,07,08,29,20.10
2017,07,07,08,30,20.10
2017,07,07,08,31,20.10
2017,07,07,08,32,20.20
2017,07,07,08,33,20.20
2017,07,07,08,34,20.20
2017,07,07,08,35,20.10
2017,07,07,08,36,20.10
2017,07,07,08,37,20.20
2017,07,07,08,38,20.20
2017,07,07,08,39,20.10
2017,07,07,08,40,20.10
2017,07,07,08,41,20.20
2017,07,07,08,42,20.20
2017,07,07,08,43,20.20
2017,07,07,08,44,20.10
2017,07,07,08,45,20.20
2017,07,07,08,46,20.20
2017,07,07,08,47,20.20
2017,07,07,08,48,20.20
2017,07,07,08,49,20.30
2017,07,07,08,50,20.30
2017,07,07,08,51,20.30
2017,07,07,08,52,20.10
2017,07,07,08,53,20.00
2017,07,07,08,54,19.80
2017,07,07,08,55,19.80
2017,07,07,08,56,19.70
2017,07,07,08,57,19.70
2017,07,07,08,58,19.60
2017,07,07,08,59,19.60
2017,07,07,09,00,19.50
2017,07,07,09,01,19.40
2017,07,07,09,02,19.40
2017,07,07,09,03,19.40
2017,07,07,09,04,19.40
2017,07,07,09,05,19.40
2017,07,07,09,06,19.40
2017,07,07,09,07,19.40
2017,07,07,09,08,19.40
2017,07,07,09,09,19.50
2017,07,07,09,10,19.60
2017,07,07,09,11,19.60
2017,07,07,09,12,19.60
2017,07,07,09,13,19.60
2017,07,07,09,14,19.70
2017,07,07,09,15,19.70
2017,07,07,09,16,19.70
2017,07,07,09,17,19.70
2017,07,07,09,18,19.70
2017,07,07,09,19,19.70
2017,07,07,09,20,19.70
2017,07,07,09,21,19.70
2017,07,07,09,22,19.70
2017,07,07,09,23,19.70
2017,07,07,09,24,19.70
2017,07,07,09,25,19.70
2017,07,07,09,26,19.60
2017,07,07,09,27,19.60
2017,07,07,09,28,19.70
2017,07,07,09,29,19.70
2017,07,07,09,30,19.70
2017,07,07,09,31,19.70
2017,07,07,09,32,19.80
2017,07,07,09,33,19.70
2017,07,07,09,34,19.70
2017,07,07,09,35,19.70
2017,07,07,09,36,19.70
2017,07,07,09,37,19.70
2017,07,07,09,38,19.60
2017,07,07,09,39,19.60
2017,07,07,09,40,19.70
2017,07,07,09,41,19.70
2017,07,07,09,42,19.70
2017,07,07,09,43,19.60
2017,07,07,09,44,19.60
2017,07,07,09,45,19.60
2017,07,07,09,46,19.60
2017,07,07,09,47,19.60
2017,07,07,09,48,19.60
2017,07,07,09,49,19.60
2017,07,07,09,50,19.70
2017,07,07,09,51,19.70
2017,07,07,09,52,19.70
2017,07,07,09,53,19.80
2017,07,07,09,54,19.80
2017,07,07,09,55,19.90
2017,07,07,09,56,20.10
2017,07,07,09,57,20.20
2017,07,07,09,58,20.30
2017,07,07,09,59,20.40
2017,07,07,10,00,20.50
2017,07,07,10,01,20.50
2017,07,07,10,02,20.50
2017,07,07,10,03,20.60
2017,07,07,10,04,20.50
2017,07,07,10,05,20.30
2017,07,07,10,06,20.00
2017,07,07,10,07,19.80
2017,07,07,10,08,19.60
2017,07,07,10,09,19.40
2017,07,07,10,10,19.20
2017,07,07,10,11,19.10
2017,07,07,10,12,19.10
2017,07,07,10,13,19.10
2017,07,07,10,14,19.10
2017,07,07,10,15,19.10
2017,07,07,10,16,19.10
2017,07,07,10,17,19.10
2017,07,07,10,18,19.00
2017,07,07,10,19,19.00
2017,07,07,10,20,18.90
2017,07,07,10,21,18.80
2017,07,07,10,22,18.80
2017,07,07,10,23,18.80
2017,07,07,10,24,18.70
2017,07,07,10,25,18.70
2017,07,07,10,26,18.70
2017,07,07,10,27,18.70
2017,07,07,10,28,18.70
2017,07,07,10,29,18.70
2017,07,07,10,30,18.80
2017,07,07,10,31,18.80
2017,07,07,10,32,18.80
2017,07,07,10,33,18.70
2017,07,07,10,34,18.70
2017,07,07,10,35,18.70
2017,07,07,10,36,18.80
2017,07,07,10,37,18.80
2017,07,07,10,38,18.80
2017,07,07,10,39,18.80
2017,07,07,10,40,18.80
2017,07,07,10,41,18.70
2017,07,07,10,42,18.80
2017,07,07,10,43,18.80
2017,07,07,10,44,18.80
2017,07,07,10,45,18.80
2017,07,07,10,46,18.80
2017,07,07,10,47,18.80
2017,07,07,10,48,18.80
2017,07,07,10,49,18.80
2017,07,07,10,50,18.80
2017,07,07,10,51,18.80
2017,07,07,10,52,18.80
2017,07,07,10,53,18.70
2017,07,07,10,54,18.70
2017,07,07,10,55,18.70
2017,07,07,10,56,18.70
2017,07,07,10,57,18.70
2017,07,07,10,58,18.60
2017,07,07,10,59,18.60
2017,07,07,11,00,18.70
2017,07,07,11,01,18.70
2017,07,07,11,02,18.70
2017,07,07,11,03,18.70
2017,07,07,11,04,18.70
2017,07,07,11,05,18.70
2017,07,07,11,06,18.70
2017,07,07,11,07,18.70
2017,07,07,11,08,18.70
2017,07,07,11,09,18.70
2017,07,07,11,10,18.80
2017,07,07,11,11,18.80
2017,07,07,11,12,18.80
2017,07,07,11,13,18.80
2017,07,07,11,14,18.80
2017,07,07,11,15,18.80
2017,07,07,11,16,18.80
2017,07,07,11,17,18.90
2017,07,07,11,18,19.00
2017,07,07,11,19,19.10
2017,07,07,11,20,19.00
2017,07,07,11,21,18.90
2017,07,07,11,22,18.90
2017,07,07,11,23,18.90
2017,07,07,11,24,18.90
2017,07,07,11,25,19.00
2017,07,07,11,26,19.10
2017,07,07,11,27,19.10
2017,07,07,11,28,19.10
2017,07,07,11,29,19.20
2017,07,07,11,30,19.20
2017,07,07,11,31,19.20
2017,07,07,11,32,19.30
2017,07,07,11,33,19.30
2017,07,07,11,34,19.40
2017,07,07,11,35,19.50
2017,07,07,11,36,19.50
2017,07,07,11,37,19.60
2017,07,07,11,38,19.70
2017,07,07,11,39,19.70
2017,07,07,11,40,19.70
2017,07,07,11,41,19.70
2017,07,07,11,42,19.60
2017,07,07,11,43,19.60
2017,07,07,11,44,19.60
2017,07,07,11,45,19.60
2017,07,07,11,46,19.50
2017,07,07,11,47,19.40
2017,07,07,11,48,19.50
2017,07,07,11,49,19.50
2017,07,07,11,50,19.50
2017,07,07,11,51,19.40
2017,07,07,11,52,19.30
2017,07,07,11,53,19.20
2017,07,07,11,54,19.20
2017,07,07,11,55,19.20
2017,07,07,11,56,19.20
2017,07,07,11,57,19.20
2017,07,07,11,58,19.30
2017,07,07,11,59,19.40
2017,07,07,12,00,19.40
2017,07,07,12,01,19.50
2017,07,07,12,02,19.70
2017,07,07,12,03,19.70
2017,07,07,12,04,19.80
2017,07,07,12,05,20.00
2017,07,07,12,06,20.10
2017,07,07,12,07,20.20
2017,07,07,12,08,20.30
2017,07,07,12,09,20.40
2017,07,07,12,10,20.50
2017,07,07,12,11,20.60
2017,07,07,12,12,20.40
2017,07,07,12,13,20.30
2017,07,07,12,14,20.30
2017,07,07,12,15,20.30
2017,07,07,12,16,20.30
2017,07,07,12,17,20.40
2017,07,07,12,18,20.40
2017,07,07,12,19,20.30
2017,07,07,12,20,20.30
2017,07,07,12,21,20.30
2017,07,07,12,22,20.40
2017,07,07,12,23,20.40
2017,07,07,12,24,20.40
2017,07,07,12,25,20.40
2017,07,07,12,26,20.40
2017,07,07,12,27,20.40
2017,07,07,12,28,20.30
2017,07,07,12,29,20.30
2017,07,07,12,30,20.30
2017,07,07,12,31,20.30
2017,07,07,12,32,20.30
2017,07,07,12,33,20.30
2017,07,07,12,34,20.50
2017,07,07,12,35,20.50
2017,07,07,12,36,20.50
2017,07,07,12,37,20.50
2017,07,07,12,38,20.50
2017,07,07,12,39,20.50
2017,07,07,12,40,20.50
2017,07,07,12,41,20.40
2017,07,07,12,42,20.40
2017,07,07,12,43,20.30
2017,07,07,12,44,20.30
2017,07,07,12,45,20.40
2017,07,07,12,46,20.30
2017,07,07,12,47,20.30
2017,07,07,12,48,20.30
2017,07,07,12,49,20.20
2017,07,07,12,50,20.20
2017,07,07,12,51,20.20
2017,07,07,12,52,20.20
2017,07,07,12,53,20.20
2017,07,07,12,54,20.10
2017,07,07,12,55,20.10
2017,07,07,12,56,20.10
2017,07,07,12,57,20.20
2017,07,07,12,58,20.30
2017,07,07,12,59,20.40
2017,07,07,13,00,20.60
2017,07,07,13,01,20.80
2017,07,07,13,02,20.70
2017,07,07,13,03,20.50
2017,07,07,13,04,20.50
2017,07,07,13,05,20.50
2017,07,07,13,06,20.50
2017,07,07,13,07,20.60
2017,07,07,13,08,20.60
2017,07,07,13,09,20.60
2017,07,07,13,10,20.70
2017,07,07,13,11,20.70
2017,07,07,13,12,20.60
2017,07,07,13,13,20.60
2017,07,07,13,14,20.70
2017,07,07,13,15,20.60
2017,07,07,13,16,20.60
2017,07,07,13,17,20.70
2017,07,07,13,18,20.80
2017,07,07,13,19,20.80
2017,07,07,13,20,20.80
2017,07,07,13,21,20.90
2017,07,07,13,22,21.00
2017,07,07,13,23,20.90
2017,07,07,13,24,20.80
2017,07,07,13,25,20.70
2017,07,07,13,26,20.70
2017,07,07,13,27,20.60
2017,07,07,13,28,20.60
2017,07,07,13,29,20.50
2017,07,07,13,30,20.40
2017,07,07,13,31,20.40
2017,07,07,13,32,20.30
2017,07,07,13,33,20.20
2017,07,07,13,34,20.20
2017,07,07,13,35,20.20
2017,07,07,13,36,20.30
2017,07,07,13,37,20.30
2017,07,07,13,38,20.30
2017,07,07,13,39,20.30
2017,07,07,13,40,20.40
2017,07,07,13,41,20.40
2017,07,07,13,42,20.40
2017,07,07,13,43,20.30
2017,07,07,13,44,20.30
2017,07,07,13,45,20.20
2017,07,07,13,46,20.20
2017,07,07,13,47,20.30
2017,07,07,13,48,20.30
2017,07,07,13,49,20.30
2017,07,07,13,50,20.20
2017,07,07,13,51,20.10
2017,07,07,13,52,20.10
2017,07,07,13,53,20.10
2017,07,07,13,54,20.00
2017,07,07,13,55,20.00
2017,07,07,13,56,20.10
2017,07,07,13,57,20.00
2017,07,07,13,58,20.10
2017,07,07,13,59,20.20
2017,07,07,14,00,20.30
2017,07,07,14,01,20.40
2017,07,07,14,02,20.50
2017,07,07,14,03,20.50
2017,07,07,14,04,20.50
2017,07,07,14,05,20.60
2017,07,07,14,06,20.50
2017,07,07,14,07,20.60
2017,07,07,14,08,20.60
2017,07,07,14,09,20.60
2017,07,07,14,10,20.60
2017,07,07,14,11,20.70
2017,07,07,14,12,20.70
2017,07,07,14,13,20.80
2017,07,07,14,14,20.80
2017,07,07,14,15,20.70
2017,07,07,14,16,20.70
2017,07,07,14,17,20.60
2017,07,07,14,18,20.50
2017,07,07,14,19,20.50
2017,07,07,14,20,20.60
2017,07,07,14,21,20.60
2017,07,07,14,22,20.70
2017,07,07,14,23,20.70
2017,07,07,14,24,20.60
2017,07,07,14,25,20.60
2017,07,07,14,26,20.60
2017,07,07,14,27,20.50
2017,07,07,14,28,20.60
2017,07,07,14,29,20.70
2017,07,07,14,30,20.80
2017,07,07,14,31,21.00
2017,07,07,14,32,21.10
2017,07,07,14,33,21.10
2017,07,07,14,34,21.20
2017,07,07,14,35,21.20
2017,07,07,14,36,21.20
2017,07,07,14,37,21.20
2017,07,07,14,38,21.30
2017,07,07,14,39,21.50
2017,07,07,14,40,21.50
2017,07,07,14,41,21.70
2017,07,07,14,42,21.80
2017,07,07,14,43,21.90
2017,07,07,14,44,21.90
2017,07,07,14,45,22.00
2017,07,07,14,46,21.90
2017,07,07,14,47,21.70
2017,07,07,14,48,21.60
2017,07,07,14,49,21.50
2017,07,07,14,50,21.50
2017,07,07,14,51,21.50
2017,07,07,14,52,21.40
2017,07,07,14,53,21.40
2017,07,07,14,54,21.50
2017,07,07,14,55,21.60
2017,07,07,14,56,21.60
2017,07,07,14,57,21.50
2017,07,07,14,58,21.50
2017,07,07,14,59,21.40
2017,07,07,15,00,21.50
2017,07,07,15,01,21.60
2017,07,07,15,02,21.60
2017,07,07,15,03,21.60
2017,07,07,15,04,21.60
2017,07,07,15,05,21.60
2017,07,07,15,06,21.70
2017,07,07,15,07,21.70
2017,07,07,15,08,21.70
2017,07,07,15,09,21.70
2017,07,07,15,10,21.70
2017,07,07,15,11,21.70
2017,07,07,15,12,21.70
2017,07,07,15,13,21.70
2017,07,07,15,14,21.80
2017,07,07,15,15,21.90
2017,07,07,15,16,22.00
2017,07,07,15,17,22.00
2017,07,07,15,18,21.90
2017,07,07,15,19,21.90
2017,07,07,15,20,22.00
2017,07,07,15,21,22.10
2017,07,07,15,22,22.00
2017,07,07,15,23,22.00
2017,07,07,15,24,22.00
2017,07,07,15,25,22.00
2017,07,07,15,26,22.20
2017,07,07,15,27,22.30
2017,07,07,15,28,22.30
2017,07,07,15,29,22.30
2017,07,07,15,30,22.30
2017,07,07,15,31,22.20
2017,07,07,15,32,22.20
2017,07,07,15,33,22.30
2017,07,07,15,34,22.30
2017,07,07,15,35,22.20
2017,07,07,15,36,22.10
2017,07,07,15,37,22.00
2017,07,07,15,38,22.00
2017,07,07,15,39,22.10
2017,07,07,15,40,22.20
2017,07,07,15,41,22.40
2017,07,07,15,42,22.50
2017,07,07,15,43,22.40
2017,07,07,15,44,22.40
2017,07,07,15,45,22.40
2017,07,07,15,46,22.30
2017,07,07,15,47,22.30
2017,07,07,15,48,22.30
2017,07,07,15,49,22.30
2017,07,07,15,50,22.10
2017,07,07,15,51,22.00
2017,07,07,15,52,21.90
2017,07,07,15,53,21.90
2017,07,07,15,54,21.90
2017,07,07,15,55,21.90
2017,07,07,15,56,21.90
2017,07,07,15,57,21.90
2017,07,07,15,58,22.00
2017,07,07,15,59,22.00
2017,07,07,16,00,22.10
2017,07,07,16,01,22.20
2017,07,07,16,02,22.20
2017,07,07,16,03,22.30
2017,07,07,16,04,22.20
2017,07,07,16,05,22.20
2017,07,07,16,06,22.20
2017,07,07,16,07,22.20
2017,07,07,16,08,22.30
2017,07,07,16,09,22.30
2017,07,07,16,10,22.40
2017,07,07,16,11,22.40
2017,07,07,16,12,22.40
2017,07,07,16,13,22.40
2017,07,07,16,14,22.40
2017,07,07,16,15,22.30
2017,07,07,16,16,22.40
2017,07,07,16,17,22.60
2017,07,07,16,18,22.60
2017,07,07,16,19,22.70
2017,07,07,16,20,22.80
2017,07,07,16,21,22.80
2017,07,07,16,22,22.80
2017,07,07,16,23,22.80
2017,07,07,16,24,22.80
2017,07,07,16,25,22.70
2017,07,07,16,26,22.60
2017,07,07,16,27,22.60
2017,07,07,16,28,22.50
2017,07,07,16,29,22.50
2017,07,07,16,30,22.50
2017,07,07,16,31,22.40
2017,07,07,16,32,22.30
2017,07,07,16,33,22.20
2017,07,07,16,34,22.20
2017,07,07,16,35,22.10
2017,07,07,16,36,22.10
2017,07,07,16,37,22.10
2017,07,07,16,38,22.10
2017,07,07,16,39,22.10
2017,07,07,16,40,22.00
2017,07,07,16,41,22.00
2017,07,07,16,42,22.20
2017,07,07,16,43,22.30
2017,07,07,16,44,22.30
2017,07,07,16,45,22.30
2017,07,07,16,46,22.30
2017,07,07,16,47,22.30
2017,07,07,16,48,22.20
2017,07,07,16,49,22.20
2017,07,07,16,50,22.20
2017,07,07,16,51,22.20
2017,07,07,16,52,22.20
2017,07,07,16,53,22.20
2017,07,07,16,54,22.30
2017,07,07,16,55,22.30
2017,07,07,16,56,22.20
2017,07,07,16,57,22.10
2017,07,07,16,58,22.10
2017,07,07,16,59,22.20
2017,07,07,17,00,22.20
2017,07,07,17,01,22.20
2017,07,07,17,02,22.20
2017,07,07,17,03,22.20
2017,07,07,17,04,22.30
2017,07,07,17,05,22.30
2017,07,07,17,06,22.30
2017,07,07,17,07,22.30
2017,07,07,17,08,22.40
2017,07,07,17,09,22.30
2017,07,07,17,10,22.30
2017,07,07,17,11,22.40
2017,07,07,17,12,22.40
2017,07,07,17,13,22.50
2017,07,07,17,14,22.50
2017,07,07,17,15,22.60
2017,07,07,17,16,22.50
2017,07,07,17,17,22.50
2017,07,07,17,18,22.40
2017,07,07,17,19,22.50